Location: Oshawa
(43.9000°N, 78.8670°W)
Time: 03:43:23
(UTC-04:00)

CARTOSAT-1 - Visible Passes

Search period start: 28 May 2018 00:00
Search period end: 07 June 2018 00:00
Orbit: 616 x 620 km, 97.8° (Epoch: 27 May)

Date Brightness Start Highest point End Pass type
(mag) Time Alt. Az. Time Alt. Az. Time Alt. Az.
28 May 5.6 00:13:06 17° WSW 00:14:12 18° W 00:17:12 10° NW visible
28 May 3.6 22:52:51 34° SE 22:54:36 64° ENE 22:58:53 10° N visible
29 May 6.0 00:29:58 11° WSW 00:31:06 12° W 00:32:51 10° WNW visible
29 May 5.8 21:34:47 10° ENE 21:35:54 11° ENE 21:37:01 10° NE visible
29 May 3.5 23:09:44 39° S 23:11:19 84° WSW 23:15:40 10° NNW visible
30 May 5.5 21:49:51 10° E 21:52:26 16° ENE 21:55:02 10° NNE visible
30 May 4.0 23:26:37 36° SSW 23:28:05 55° W 23:32:20 10° NNW visible
31 May 5.1 22:06:23 13° ESE 22:09:01 22° ENE 22:12:22 10° NNE visible
31 May 4.7 23:43:30 28° SW 23:44:53 36° W 23:48:53 10° NNW visible
01 Jun 4.6 22:23:16 19° ESE 22:25:37 32° ENE 22:29:28 10° N visible
02 Jun 5.2 00:00:23 21° WSW 00:01:44 24° W 00:05:16 10° NW visible
02 Jun 4.0 22:40:09 25° SE 22:42:17 47° ENE 22:46:26 10° N visible
03 Jun 5.7 00:17:17 15° WSW 00:18:37 16° W 00:21:23 10° NW visible
03 Jun 3.5 22:57:02 32° SSE 22:58:58 72° ENE 23:03:17 10° N visible
04 Jun 6.1 00:34:27 10° WSW 00:35:33 11° W 00:36:38 10° WNW visible
04 Jun 5.8 21:38:34 10° E 21:40:14 12° ENE 21:41:54 10° NE visible
04 Jun 3.6 23:13:56 35° S 23:15:42 75° WSW 23:20:02 10° NNW visible
05 Jun 5.4 21:53:57 10° ESE 21:56:46 17° ENE 21:59:37 10° NNE visible
05 Jun 4.2 23:30:49 31° SSW 23:32:29 49° W 23:36:41 10° NNW visible
06 Jun 5.0 22:10:35 14° ESE 22:13:21 25° ENE 22:16:52 10° NNE visible
06 Jun 4.8 23:47:43 25° SW 23:49:17 32° W 23:53:12 10° NNW visible
